Weather History for St. James, MN

Change the Weather History Date:

Wednesday, January 11, 2012

  Actual Average Record
Temperature  
Mean Temperature 26 °F -  
Max Temperature 37 °F 20 °F 49 °F (1990)
Min Temperature 15 °F 0 °F -25 °F (1977)
Degree Days  
Heating Degree Days 39    
Moisture  
Dew Point 23 °F    
Average Humidity 79    
Maximum Humidity 93    
Minimum Humidity 62    
Precipitation  
Precipitation 0.00 in - - ()
Sea Level Pressure  
Sea Level Pressure 29.76 in    
Wind  
Wind Speed 16 mph (WNW)    
Max Wind Speed 37 mph    
Max Gust Speed 46 mph    
Visibility 9 miles    
Events Snow    
Averages and records for this station are not official NWS values.
T = Trace of Precipitation, MM = Missing Value Source: NWS Daily Summary

Daily Weather History Graph

Daily Weather History Graph

Search for Another Location

Airport:

Trip Planner

Search our weather history database for the weather conditions in past years. The results will help you decide how hot, cold, wet, or windy it might be!

Date:

Astronomy

Jan. 11, 2012 Rise Set
Actual Time 7:51 AM CST 5:00 PM CST
Civil Twilight 7:19 AM CST 5:33 PM CST
Nautical Twilight 6:43 AM CST 6:09 PM CST
Astronomical Twilight 6:08 AM CST 6:43 PM CST
Moon 8:07 PM CST (1/11) 8:57 AM CST (1/11)
Length of Visible Light 10h 13m
Length of Day
9h 09m
Waning Gibbous, 93% of the Moon is Illuminated
Jan 11
Waning Gibbous
Jan 16
Last Quarter
Jan 23
New
Jan 30
First Quarter
Feb 7
Full

Hourly Weather History & Observations

Time (CST) Temp. Windchill Dew Point Humidity Pressure Visibility Wind Dir Wind Speed Gust Speed Precip Events Conditions
12:15 AM 35.6 °F 29.2 °F 30.2 °F 81% 29.62 in 10.0 mi South 8.1 mph - N/A   Clear
12:34 AM 35.6 °F 30.7 °F 30.2 °F 81% 29.61 in 10.0 mi SSW 5.8 mph - N/A   Clear
12:55 AM 37.4 °F 32.8 °F 32.0 °F 81% 29.62 in 10.0 mi SSW 5.8 mph - N/A   Clear
1:15 AM 37.4 °F 33.8 °F 30.2 °F 75% 29.61 in 10.0 mi SSW 4.6 mph - N/A   Clear
1:35 AM 35.6 °F - 30.2 °F 81% 29.62 in 10.0 mi Calm Calm - N/A   Clear
1:55 AM 35.6 °F 32.8 °F 30.2 °F 81% 29.62 in 10.0 mi WSW 3.5 mph - N/A   Clear
2:15 AM 35.6 °F 32.8 °F 30.2 °F 81% 29.62 in 10.0 mi West 3.5 mph - N/A   Clear
2:35 AM 33.8 °F - 30.2 °F 87% 29.61 in 10.0 mi Calm Calm - N/A   Clear
2:55 AM 32.0 °F - 28.4 °F 87% 29.62 in 10.0 mi Calm Calm - N/A   Clear
3:15 AM 33.8 °F 29.6 °F 28.4 °F 81% 29.61 in 10.0 mi WNW 4.6 mph - N/A   Clear
3:35 AM 33.8 °F 26.4 °F 28.4 °F 81% 29.61 in 10.0 mi West 9.2 mph - N/A   Clear
3:55 AM 33.8 °F 27.0 °F 28.4 °F 81% 29.61 in 10.0 mi WSW 8.1 mph - N/A   Clear
4:15 AM 33.8 °F 27.0 °F 28.4 °F 81% 29.61 in 10.0 mi West 8.1 mph - N/A   Clear
4:34 AM 35.6 °F 28.6 °F 30.2 °F 81% 29.60 in 10.0 mi WNW 9.2 mph - N/A   Clear
4:55 AM 33.8 °F 27.0 °F 28.4 °F 81% 29.60 in 10.0 mi WNW 8.1 mph - N/A   Clear
5:15 AM 33.8 °F 25.8 °F 28.4 °F 81% 29.61 in 10.0 mi WNW 10.4 mph - N/A   Clear
5:34 AM 33.8 °F 25.3 °F 28.4 °F 81% 29.62 in 10.0 mi WNW 11.5 mph - N/A   Clear
6:15 AM 33.8 °F 24.8 °F 30.2 °F 87% 29.64 in 10.0 mi WNW 12.7 mph - N/A   Clear
6:35 AM 35.6 °F 25.5 °F 30.2 °F 81% 29.66 in 10.0 mi NW 17.3 mph - N/A   Clear
6:55 AM 35.6 °F 25.5 °F 30.2 °F 81% 29.67 in 10.0 mi NW 17.3 mph - N/A   Clear
7:15 AM 35.6 °F 26.2 °F 32.0 °F 87% 29.67 in 10.0 mi NW 15.0 mph - N/A   Clear
7:35 AM 35.6 °F 25.5 °F 33.8 °F 93% 29.69 in 10.0 mi WNW 17.3 mph 23.0 mph N/A   Mostly Cloudy
7:55 AM 37.4 °F 26.9 °F 33.8 °F 87% 29.70 in 10.0 mi WNW 20.7 mph 26.5 mph N/A   Overcast
8:15 AM 37.4 °F 26.6 °F 33.8 °F 87% 29.71 in 10.0 mi NW 21.9 mph 28.8 mph N/A   Overcast
8:34 AM 35.6 °F 23.4 °F 32.0 °F 87% 29.72 in 10.0 mi NW 25.3 mph 28.8 mph N/A   Overcast
8:55 AM 35.6 °F 24.2 °F 32.0 °F 87% 29.74 in 10.0 mi NW 21.9 mph 26.5 mph N/A   Overcast
9:15 AM 35.6 °F 24.0 °F 32.0 °F 87% 29.75 in 10.0 mi NW 23.0 mph 27.6 mph N/A   Overcast
9:35 AM 35.6 °F 24.0 °F 32.0 °F 87% 29.76 in 10.0 mi NW 23.0 mph 29.9 mph N/A   Overcast
9:55 AM 35.6 °F 23.0 °F 30.2 °F 81% 29.76 in 10.0 mi NW 27.6 mph 34.5 mph N/A   Overcast
10:15 AM 33.8 °F 20.5 °F 30.2 °F 87% 29.77 in 10.0 mi NW 27.6 mph 34.5 mph N/A   Overcast
10:35 AM 33.8 °F 20.3 °F 28.4 °F 81% 29.78 in 4.0 mi NW 28.8 mph 42.6 mph N/A Snow Light Snow
10:55 AM 32.0 °F 17.9 °F 28.4 °F 87% 29.78 in 3.0 mi NW 28.8 mph 35.7 mph N/A Snow Light Snow
11:15 AM 32.0 °F 17.2 °F 26.6 °F 80% 29.78 in 2.5 mi NW 32.2 mph 41.4 mph N/A Snow Light Snow
11:35 AM 30.2 °F 16.8 °F 26.6 °F 86% 29.79 in 2.5 mi NW 23.0 mph 34.5 mph N/A Snow Light Snow
11:55 AM 28.4 °F 13.5 °F 24.8 °F 86% 29.80 in 4.0 mi WNW 26.5 mph 35.7 mph N/A Snow Light Snow
12:15 PM 28.4 °F 13.5 °F 24.8 °F 86% 29.80 in 2.0 mi WNW 26.5 mph 38.0 mph N/A Snow Light Snow
12:35 PM 26.6 °F 10.8 °F 21.2 °F 80% 29.80 in 5.0 mi WNW 27.6 mph 39.1 mph N/A   Haze
12:55 PM 26.6 °F 10.0 °F 21.2 °F 80% 29.81 in 5.0 mi NW 31.1 mph 38.0 mph N/A   Haze
1:14 PM 26.6 °F 10.6 °F 21.2 °F 80% 29.82 in 3.0 mi NW 28.8 mph 38.0 mph N/A   Haze
1:35 PM 24.8 °F 6.4 °F 19.4 °F 80% 29.82 in 7.0 mi NW 36.8 mph 44.9 mph N/A   Overcast
1:55 PM 24.8 °F 7.1 °F 17.6 °F 74% 29.83 in 10.0 mi NW 33.4 mph 41.4 mph N/A   Overcast
2:15 PM 24.8 °F 7.1 °F 17.6 °F 74% 29.84 in 10.0 mi NW 33.4 mph 39.1 mph N/A   Overcast
2:34 PM 24.8 °F 7.6 °F 15.8 °F 69% 29.85 in 10.0 mi NW 31.1 mph 41.4 mph N/A   Mostly Cloudy
2:55 PM 23.0 °F 4.6 °F 17.6 °F 80% 29.85 in 10.0 mi NW 33.4 mph 41.4 mph N/A   Overcast
3:35 PM 21.2 °F 3.3 °F 15.8 °F 80% 29.87 in 10.0 mi NW 28.8 mph 39.1 mph N/A Snow Light Snow
3:51 PM 21.2 °F 3.3 °F 15.8 °F 80% 29.88 in 5.0 mi NW 28.8 mph 41.4 mph N/A Snow Light Snow
4:21 PM 21.2 °F 2.4 °F 12.2 °F 68% 29.89 in 10.0 mi NW 32.2 mph 46.0 mph N/A   Scattered Clouds
4:41 PM 19.4 °F 0.2 °F 12.2 °F 74% 29.89 in 10.0 mi NW 31.1 mph 41.4 mph N/A   Mostly Cloudy
5:01 PM 19.4 °F 0.5 °F 12.2 °F 74% 29.90 in 10.0 mi NW 29.9 mph 43.7 mph N/A   Overcast
5:14 PM 19.4 °F -0.8 °F 12.2 °F 74% 29.89 in 10.0 mi NW 35.7 mph 44.9 mph N/A Snow Light Snow
5:30 PM 19.4 °F 0.5 °F 12.2 °F 74% 29.91 in 10.0 mi NW 29.9 mph 42.6 mph N/A   Mostly Cloudy
5:37 PM 19.4 °F -0.3 °F 10.4 °F 68% 29.90 in 10.0 mi NW 33.4 mph 41.4 mph N/A   Mostly Cloudy
6:15 PM 19.4 °F 0.2 °F 10.4 °F 68% 29.91 in 10.0 mi NW 31.1 mph 38.0 mph N/A   Overcast
6:35 PM 19.4 °F 1.1 °F 10.4 °F 68% 29.92 in 10.0 mi NW 27.6 mph 36.8 mph N/A   Overcast
6:54 PM 17.6 °F -1.3 °F 10.4 °F 73% 29.93 in 7.0 mi NW 27.6 mph 31.1 mph N/A Snow Light Snow
7:15 PM 17.6 °F -1.9 °F 10.4 °F 73% 29.92 in 10.0 mi NW 29.9 mph 40.3 mph N/A   Mostly Cloudy
7:35 PM 17.6 °F -1.9 °F 8.6 °F 68% 29.93 in 10.0 mi NW 29.9 mph 39.1 mph N/A   Mostly Cloudy
8:14 PM 15.8 °F -3.1 °F 6.8 °F 68% 29.93 in 10.0 mi NW 25.3 mph 38.0 mph N/A   Scattered Clouds
8:35 PM 15.8 °F -3.7 °F 6.8 °F 68% 29.93 in 10.0 mi NW 27.6 mph 35.7 mph N/A   Scattered Clouds
8:55 PM 15.8 °F -3.1 °F 6.8 °F 68% 29.93 in 10.0 mi NW 25.3 mph 34.5 mph N/A   Scattered Clouds
9:15 PM 15.8 °F -2.7 °F 5.0 °F 62% 29.93 in 10.0 mi NW 24.2 mph 29.9 mph N/A   Scattered Clouds
9:35 PM 15.8 °F -2.3 °F 5.0 °F 62% 29.93 in 10.0 mi NW 23.0 mph 31.1 mph N/A   Clear
9:54 PM 15.8 °F -2.3 °F 6.8 °F 68% 29.92 in 10.0 mi NW 23.0 mph 32.2 mph N/A   Clear
10:15 PM 15.8 °F -2.7 °F 6.8 °F 68% 29.92 in 10.0 mi NW 24.2 mph 31.1 mph N/A   Clear
10:35 PM 15.8 °F -3.4 °F 6.8 °F 68% 29.92 in 10.0 mi NW 26.5 mph 32.2 mph N/A   Clear
10:55 PM 15.8 °F -3.1 °F 5.0 °F 62% 29.92 in 10.0 mi NW 25.3 mph 33.4 mph N/A   Scattered Clouds
11:15 PM 14.0 °F -6.8 °F 6.8 °F 73% 29.92 in 10.0 mi NW 29.9 mph 38.0 mph N/A   Mostly Cloudy
11:34 PM 14.0 °F -5.8 °F 5.0 °F 67% 29.92 in 10.0 mi NW 26.5 mph 34.5 mph N/A   Overcast
11:55 PM 14.0 °F -6.5 °F 3.2 °F 62% 29.92 in 10.0 mi NW 28.8 mph 36.8 mph N/A   Scattered Clouds